Погода в Таразе

Погода в Таразе : погода сейчас, прогноз погоды и архив. Всё, что Вы хотите узнать о погоде в Таразе!

Поиск расширенной информации на нашем сайте:

Другие новости

Новости СМИ2

Главная страница сайта

Новости сайта

03.07.2017

Напоминаем, что на нашем специализированном сайте Метеоцентр.Азия вы можете получить высокодетализированные автоматические прогнозы погоды по пунктам России, СНГ и мира в авиационном формате (включающие направление и скорость ветра, видимость, явления погоды, количество и форму облачности, нижнюю и верхнюю границу облачности).

Рекомендуем: Тариф защита ddos.

Погода в Таразе - сегодня

Время (UTC), дата Ветер
(°,м/с) 
Видим.   Явления Облачность Т
(°С)
Тd
(°С)
f(%) Тe
(°С)
Pmin
(гПа)
dP
(гПа)
Po
(мм)
O2
(г/м3)
Тmin Tmax R s Состояние
почвы
06 15.04.18 350 (С) 20000 м    10/10 1000 м 
[Sc diur, vesp]
+19.1 +7 45 +20  1009.8  1.5  702  263  +13.3         
09 15.04.18 270 (З) 20000 м    8/0 средняя, верхняя 
[Ac lent|Ci fib]
+21.1 +6.8 39 +21  1008.8  -0.4  702  261           
12 15.04.18 260 (З) 20000 м    10/10 1000 м 
[Sc diur, vesp]
+17.9 +8.6 54 +20  1010.6  703  264           
15 15.04.18 270 (З) 10 км    9/4 1000 м средняя 
[Sc diur, vesp|Ac lent]
+15 +8.5 65 +16  1012.1  0.6  703  267    +21.3       
21 15.04.18 180 (Ю) 10 км  {ливн. осадки}  10/10 600 м кучево-дожд. 
[Cb cap]
+11.9 +11.9 100 +18  1014.2  0.2  704  270           
03 16.04.18 240 (ЮЗ) 20000 м  в посл. час ливневой дождь  10/10 600 м кучево-дожд. 
[Cb cap]
+12.3 +8.9 80 +14  1017.4  1.8  706  271         
09 16.04.18 120 (ЮВ) 20000 м    10/10 1000 м 
[Sc diur, vesp]
+14.5 +8.1 65 +15  1018.7  -0.1  708  269           
12 16.04.18 130 (ЮВ) 20000 м    6/6 1000 м 
[Sc diur, vesp]
+15.7 +8.6 63 +17  1017.9  -0.2  707  268           
15 16.04.18 170 (Ю) 10 км    8/8 1000 м 
[Sc diur, vesp]
+13.3 +9.5 78 +17  1018.8  0.2  708  270    +16.5       
18 16.04.18 тихо ()   10 км    6/6 1000 м 
[Sc diur, vesp]
+11.8 +10.3 91 +15  1017.9  -1.1  707  271    +16.5       
03 17.04.18 тихо ()   20000 м    10/4 1000 м средняя, верхняя 
[Sc diur, vesp|Ac lent|Ci fib]
+11.2 +5.3 67 +11  1016.2  -0.5  705  272  +6.4        влажная 
06 17.04.18 340 (С) 20000 м    10/3 1000 м средняя, верхняя 
[Sc diur, vesp|Ac lent|Ci fib]
+13.7 +5 56 +14  1014.7  -0.8  705  270  +6.4         
09 17.04.18 350 (С) 20000 м    10/6 1000 м средняя 
[Sc diur, vesp|Ac lent]
+15.8 +7.6 58 +16  1012.6  -1.3  704  267           
12 17.04.18 300 (СЗ) 20000 м    10/10 1000 м 
[Sc diur, vesp]
+12.8 +5 59 +13  1014.2  0.7  704  270           
21 17.04.18 280 (З) 10 км    10/10 1000 м 
[Sc diur, vesp]
+6.3 +4 85 +5  1021.8  1.1  708  278           
03 18.04.18 230 (ЮЗ) 10 км  слаб. ливневой дождь  10/10 600 м кучево-дожд. 
[Cb cap]
+5.2 +5.2 100 +6  1026.7  2.5  711  280         
09 18.04.18 190 (Ю) 20000 м    10/10 600 м кучево-дожд. 
[Cb cap]
+9.7 +3.2 64 +10  1025.4  -1  711  276           
12 18.04.18 160 (Ю) 20000 м    10/10 600 м кучево-дожд. 
[Cb cap]
+10.1 +2.1 58 +10  1024.9  -0.3  711  276           
21 18.04.18 220 (ЮЗ) 10 км    10/8 1000 м средняя 
[Sc diur, vesp|Ac lent]
+6 +5.1 94 +7  1024.7  -1.1  710  279           
06 19.04.18 тихо ()   20000 м    8/4 1000 м верхняя 
[Cu med, cong|Ci fib]
+13.4 +0.9 42 +13  1020.7  -0.5  709  272  +5.8         
09 19.04.18 340 (С) 20000 м    8/6 1000 м верхняя 
[Cu med, cong|Ci fib]
+13.7 -0.9 37 +14  1019.8  -0.8  708  272           
12 19.04.18 330 (СЗ) 20000 м    8/4 1000 м верхняя 
[Cu med, cong|Ci fib]
+13.6 -1.2 36 +14  1019.8  708  272           
15 19.04.18 тихо ()   10 км    3/0 верхняя 
[Ci fib]
+9.6 +1.1 55 +10  1021.3  0.3  709  276    +14.5       
18 19.04.18 тихо ()   10 км    3/0 верхняя 
[Ci fib]
+6.6 +3.8 82 +7  1022.3  0.2  709  278    +14.5       
21 19.04.18 200 (Ю) 10 км    3/0 верхняя 
[Ci fib]
+5.4 +2.5 82 +6  1021.2  -1.4  708  279           
Время (UTC), дата Ветер
(°,м/с) 
Видим.   Явления Облачность Т
(°С)
Тd
(°С)
f(%) Тe
(°С)
Pmin
(гПа)
dP
(гПа)
Po
(мм)
O2
(г/м3)
Тmin Tmax R s Состояние
почвы

Для получения пояснительной информации подведите курсор к названию столбца.

ПОГОДА в Таразе - архив

Всё, что Вы хотите узнать о погоде в Таразе - удобно и подробно!

Выберите нужную дату (начиная с 1 января 2015* года) и нажмите кнопку "Найти".
Будут отображены архивные сводки погоды по пункту Тараз, начиная с указанной даты.


Отображать данные в формате CSV (для использования в таблицах Excel)


Внимание! Наш архив погоды предназначен исключительно для личного некоммерческого использования в познавательных целях. Если Вам необходимы официальные справки о состоянии погоды (для производственных, юридических, коммерческих и т.п. целей), обращайтесь в органы Росгидромета.

*Примечание: данная дата относится к архиву по метеостанциям СССР (Россия, СНГ, Балтия).
Архив по метеостанциям Зарубежной Европы и Азии (кроме Китая) хранится 10 дней, по другим регионам земного шара (Китай, Африка, Америка, Австралия, Океания) - 1 день.

Тараз - район местоположения метеостанции


Название, широта, долгота, высота метеостанции:
Тараз (город) 42.9°ш. 71.4°д. 651 м над ур. моря [Казахстан]

Дополнительная информация

В oтличие oт бoльшинства пoгoдных сайтoв мы публикуем пoдрoбную метеoинфoрмацию в детальнoм прoфессиoнальнoм фoрмате.

Характеристики температуры и влажнoсти вoздуха измеряются на высoте 2 м в тени вдали oт зданий и деревьев.
Скoрoсть ветра измеряется на высoте 10 м (на урoвне рoста челoвека скoрoсть ветра ниже в 1.5-2 раза). Если метеoстанция нахoдится в гoрoде или в лесу, тo скoрoсть ветра занижена на 2-4 м/с пo сравнению с oткрытым местoм. Скoрoсть ветра над акватoриями крупных рек и oзёр, а также на вершинах хoлмoв на 2-5 м/с выше, чем в oбычных услoвиях.
Атмoсфернoе давление в разных тoчках местнoсти мoжет значительнo oтличаться oт давления на метеoстанции, в зависимoсти oт услoвий рельефа (при пoдъёме на 10 м давление пoнижается примернo на 1 мм рт.ст.).